SWA3441 KPNS-KHOU

Flight info

Callsign SWA3441
Flight time N/A
Altitude 34000
Route ROMMY HRV KCEEE PUCKS4
Aircraft B738/M-SDE2E3FGHIRWXY/LB1

Departure

Time 2026-04-26 17:52
Airport Pensacola International Airport (KPNS)

Arrival

Time N/A
Airport William P. Hobby Airport (KHOU)
Time Latitude Longitude Altitude Speed Heading
2026-04-26 17:13 30.47465 -87.19235 105 ft 0 kts 26°
2026-04-26 17:34 30.47463 -87.19237 105 ft 1 kts 26°
2026-04-26 17:34 30.47457 -87.19241 104 ft 1 kts 40°
2026-04-26 17:34 30.47452 -87.19246 104 ft 1 kts 54°
2026-04-26 17:34 30.47450 -87.19250 104 ft 1 kts 59°
2026-04-26 17:35 30.47447 -87.19257 104 ft 1 kts 68°
2026-04-26 17:35 30.47445 -87.19263 104 ft 1 kts 72°
2026-04-26 17:35 30.47443 -87.19270 104 ft 1 kts 72°
2026-04-26 17:35 30.47441 -87.19277 103 ft 1 kts 72°
2026-04-26 17:36 30.47438 -87.19286 103 ft 1 kts 71°
2026-04-26 17:36 30.47436 -87.19295 103 ft 1 kts 81°
2026-04-26 17:36 30.47435 -87.19305 103 ft 1 kts 105°
2026-04-26 17:36 30.47437 -87.19311 103 ft 0 kts 123°
2026-04-26 17:40 30.47437 -87.19310 103 ft 1 kts 123°
2026-04-26 17:40 30.47432 -87.19302 102 ft 3 kts 125°
2026-04-26 17:40 30.47368 -87.19284 98 ft 12 kts 158°
2026-04-26 17:40 30.47345 -87.19195 97 ft 13 kts 81°
2026-04-26 17:41 30.47363 -87.19097 99 ft 12 kts 77°
2026-04-26 17:41 30.47382 -87.18999 98 ft 12 kts 77°
2026-04-26 17:41 30.47400 -87.18901 97 ft 12 kts 78°
2026-04-26 17:41 30.47417 -87.18807 100 ft 12 kts 78°
2026-04-26 17:42 30.47433 -87.18715 103 ft 11 kts 79°
2026-04-26 17:42 30.47447 -87.18627 105 ft 11 kts 80°
2026-04-26 17:42 30.47464 -87.18539 105 ft 11 kts 77°
2026-04-26 17:42 30.47479 -87.18454 104 ft 11 kts 79°
2026-04-26 17:43 30.47499 -87.18371 107 ft 11 kts 68°
2026-04-26 17:43 30.47518 -87.18284 107 ft 12 kts 79°
2026-04-26 17:43 30.47536 -87.18184 107 ft 13 kts 77°
2026-04-26 17:43 30.47553 -87.18080 108 ft 13 kts 79°
2026-04-26 17:44 30.47571 -87.17978 109 ft 13 kts 78°
2026-04-26 17:44 30.47589 -87.17875 111 ft 13 kts 79°
2026-04-26 17:44 30.47610 -87.17762 108 ft 15 kts 77°
2026-04-26 17:44 30.47631 -87.17639 111 ft 15 kts 78°
2026-04-26 17:45 30.47650 -87.17519 114 ft 15 kts 86°
2026-04-26 17:45 30.47622 -87.17459 114 ft 3 kts 153°
2026-04-26 17:45 30.47622 -87.17458 114 ft 0 kts 153°
2026-04-26 17:50 30.47621 -87.17458 114 ft 2 kts 153°
2026-04-26 17:50 30.47566 -87.17440 112 ft 12 kts 172°
2026-04-26 17:50 30.47520 -87.17475 111 ft 8 kts 254°
2026-04-26 17:51 30.47518 -87.17485 111 ft 0 kts 254°
2026-04-26 17:51 30.47456 -87.17840 109 ft 87 kts 258°
2026-04-26 17:51 30.47261 -87.18842 111 ft 160 kts 259°
2026-04-26 17:52 30.46998 -87.20165 882 ft 164 kts 255°
2026-04-26 17:52 30.46463 -87.21294 2114 ft 155 kts 250°
2026-04-26 17:52 30.46101 -87.22501 2669 ft 165 kts 256°
2026-04-26 17:52 30.45755 -87.23830 3016 ft 186 kts 256°
2026-04-26 17:53 30.45493 -87.24895 3024 ft 216 kts 256°
2026-04-26 17:53 30.45058 -87.26704 3030 ft 252 kts 257°
2026-04-26 17:53 30.44555 -87.28864 2999 ft 265 kts 256°
2026-04-26 17:54 30.43602 -87.32926 2987 ft 262 kts 256°
2026-04-26 17:54 30.43128 -87.34974 2991 ft 259 kts 257°
2026-04-26 17:54 30.42896 -87.37072 2982 ft 259 kts 278°
2026-04-26 17:54 30.43292 -87.39101 3063 ft 260 kts 285°
2026-04-26 17:55 30.43662 -87.41177 3688 ft 263 kts 281°
2026-04-26 17:55 30.43906 -87.43344 4830 ft 261 kts 277°
2026-04-26 17:55 30.44034 -87.45431 5774 ft 265 kts 274°
2026-04-26 17:55 30.44080 -87.47572 6678 ft 269 kts 272°
2026-04-26 17:56 30.44059 -87.49762 7573 ft 273 kts 271°
2026-04-26 17:56 30.43878 -87.54229 9248 ft 282 kts 269°
2026-04-26 17:57 30.43579 -87.58817 10955 ft 288 kts 267°
2026-04-26 17:57 30.43404 -87.61135 11805 ft 290 kts 266°
2026-04-26 17:57 30.43214 -87.63515 12351 ft 305 kts 266°
2026-04-26 17:57 30.43003 -87.66079 12602 ft 326 kts 266°
2026-04-26 17:58 30.42308 -87.74052 14898 ft 335 kts 265°
2026-04-26 17:59 30.41823 -87.79477 16447 ft 339 kts 265°
2026-04-26 17:59 30.41577 -87.82200 17220 ft 340 kts 264°
2026-04-26 17:59 30.41330 -87.84932 17919 ft 342 kts 264°
2026-04-26 17:59 30.41076 -87.87736 18646 ft 345 kts 264°
2026-04-26 18:00 30.40824 -87.90506 19270 ft 349 kts 264°
2026-04-26 18:00 30.40567 -87.93321 19814 ft 355 kts 264°
2026-04-26 18:00 30.40305 -87.96191 20370 ft 360 kts 265°
2026-04-26 18:00 30.40040 -87.99094 20941 ft 364 kts 265°
2026-04-26 18:01 30.39771 -88.02025 21489 ft 368 kts 265°
2026-04-26 18:01 30.39499 -88.04981 22014 ft 372 kts 265°
2026-04-26 18:01 30.39222 -88.07982 22503 ft 376 kts 265°
2026-04-26 18:01 30.38938 -88.11056 22997 ft 380 kts 265°
2026-04-26 18:02 30.38655 -88.14108 23485 ft 384 kts 265°
2026-04-26 18:02 30.38561 -88.15112 23645 ft 385 kts 265°
2026-04-26 18:02 30.38075 -88.20343 24265 ft 396 kts 265°
2026-04-26 18:02 30.37775 -88.23564 24365 ft 409 kts 265°
2026-04-26 18:03 30.37464 -88.26890 24540 ft 418 kts 265°
2026-04-26 18:03 30.37147 -88.30262 24830 ft 424 kts 265°
2026-04-26 18:03 30.36826 -88.33661 25240 ft 426 kts 265°
2026-04-26 18:03 30.36503 -88.37058 25914 ft 420 kts 265°
2026-04-26 18:04 30.36185 -88.40404 26571 ft 416 kts 265°
2026-04-26 18:04 30.35863 -88.43784 27102 ft 415 kts 265°
2026-04-26 18:04 30.35547 -88.47101 27616 ft 415 kts 265°
2026-04-26 18:05 30.34920 -88.53657 28753 ft 409 kts 266°
2026-04-26 18:05 30.34606 -88.56923 29307 ft 406 kts 266°
2026-04-26 18:05 30.34293 -88.60179 29863 ft 403 kts 266°
2026-04-26 18:05 30.33980 -88.63424 30361 ft 402 kts 266°
2026-04-26 18:06 30.33669 -88.66631 30898 ft 398 kts 266°
2026-04-26 18:06 30.33362 -88.69803 31499 ft 393 kts 266°
2026-04-26 18:06 30.33058 -88.72923 32089 ft 388 kts 267°
2026-04-26 18:06 30.32757 -88.76010 32644 ft 383 kts 268°
2026-04-26 18:07 30.32422 -88.79054 33140 ft 381 kts 264°
2026-04-26 18:07 30.31768 -88.82034 33589 ft 383 kts 256°
2026-04-26 18:07 30.30742 -88.84895 33953 ft 386 kts 252°
2026-04-26 18:08 30.28462 -88.90676 33955 ft 400 kts 251°
2026-04-26 18:08 30.26505 -88.95621 33970 ft 410 kts 251°
2026-04-26 18:09 30.24110 -89.01707 33968 ft 421 kts 251°
2026-04-26 18:09 30.21644 -89.07991 33964 ft 429 kts 251°
2026-04-26 18:10 30.19158 -89.14313 33964 ft 430 kts 251°
2026-04-26 18:10 30.16681 -89.20608 33961 ft 429 kts 251°
2026-04-26 18:11 30.14211 -89.26881 33969 ft 428 kts 251°
2026-04-26 18:11 30.11744 -89.33137 33969 ft 427 kts 251°
2026-04-26 18:12 30.09285 -89.39360 33972 ft 425 kts 251°
2026-04-26 18:12 30.06835 -89.45551 33971 ft 423 kts 251°
2026-04-26 18:13 30.04389 -89.51725 33976 ft 421 kts 251°
2026-04-26 18:13 30.01949 -89.57872 33979 ft 420 kts 251°
2026-04-26 18:14 29.99515 -89.63994 33985 ft 419 kts 251°
2026-04-26 18:14 29.97082 -89.70105 33984 ft 419 kts 251°
2026-04-26 18:15 29.94608 -89.76307 33992 ft 419 kts 251°
2026-04-26 18:15 29.92160 -89.82433 33991 ft 420 kts 251°
2026-04-26 18:16 29.89714 -89.88546 33990 ft 420 kts 251°
2026-04-26 18:16 29.86027 -89.97740 33991 ft 421 kts 251°
2026-04-26 18:17 29.84049 -90.04010 33999 ft 414 kts 261°
2026-04-26 18:17 29.82571 -90.10428 33990 ft 415 kts 261°
2026-04-26 18:18 29.81076 -90.16844 33990 ft 415 kts 260°
2026-04-26 18:18 29.79549 -90.23314 33990 ft 416 kts 260°
2026-04-26 18:19 29.78030 -90.29700 33991 ft 416 kts 260°
2026-04-26 18:19 29.76490 -90.36158 33989 ft 416 kts 260°
2026-04-26 18:20 29.74963 -90.42542 33990 ft 416 kts 260°
2026-04-26 18:20 29.73672 -90.47931 33991 ft 416 kts 260°
2026-04-26 18:21 29.71884 -90.55380 33990 ft 415 kts 260°
2026-04-26 18:21 29.70337 -90.61809 33989 ft 415 kts 260°
2026-04-26 18:22 29.68786 -90.68239 33992 ft 415 kts 260°
2026-04-26 18:22 29.67242 -90.74623 33991 ft 415 kts 260°
2026-04-26 18:23 29.65695 -90.81004 33990 ft 414 kts 259°
2026-04-26 18:23 29.64140 -90.87404 33990 ft 414 kts 259°
2026-04-26 18:24 29.62590 -90.93772 33992 ft 413 kts 259°
2026-04-26 18:24 29.61035 -91.00144 33983 ft 413 kts 259°
2026-04-26 18:25 29.59481 -91.06496 33981 ft 413 kts 259°
2026-04-26 18:25 29.57923 -91.12852 33980 ft 413 kts 259°
2026-04-26 18:26 29.56361 -91.19211 33970 ft 413 kts 259°
2026-04-26 18:26 29.54800 -91.25553 33974 ft 413 kts 259°
2026-04-26 18:27 29.53236 -91.31891 33974 ft 413 kts 259°
2026-04-26 18:27 29.51663 -91.38247 33971 ft 413 kts 259°
2026-04-26 18:28 29.50093 -91.44582 33972 ft 412 kts 259°
2026-04-26 18:28 29.48522 -91.50906 33971 ft 412 kts 259°
2026-04-26 18:29 29.46945 -91.57237 33973 ft 412 kts 259°
2026-04-26 18:29 29.45364 -91.63574 33970 ft 412 kts 259°
2026-04-26 18:30 29.43804 -91.69799 33954 ft 400 kts 259°
2026-04-26 18:30 29.42525 -91.74898 33962 ft 398 kts 259°
2026-04-26 18:31 29.40995 -91.81003 33967 ft 398 kts 259°
2026-04-26 18:31 29.39444 -91.87176 33966 ft 399 kts 259°
2026-04-26 18:32 29.37911 -91.93281 33955 ft 399 kts 261°
2026-04-26 18:32 29.37433 -91.96387 33935 ft 392 kts 273°
2026-04-26 18:32 29.37681 -91.99476 33964 ft 388 kts 282°
2026-04-26 18:33 29.38718 -92.05547 33960 ft 387 kts 283°
2026-04-26 18:33 29.39844 -92.11606 33956 ft 388 kts 284°
2026-04-26 18:34 29.40987 -92.17651 33956 ft 388 kts 284°
2026-04-26 18:34 29.42143 -92.23709 33957 ft 388 kts 284°
2026-04-26 18:35 29.43299 -92.29737 33961 ft 388 kts 284°
2026-04-26 18:35 29.44472 -92.35828 33953 ft 388 kts 284°
2026-04-26 18:36 29.45641 -92.41876 33957 ft 388 kts 284°
2026-04-26 18:36 29.46827 -92.48012 33950 ft 388 kts 283°
2026-04-26 18:37 29.46981 -92.51094 33961 ft 393 kts 266°
2026-04-26 18:37 29.46226 -92.54136 33931 ft 402 kts 250°
2026-04-26 18:37 29.44654 -92.56811 33591 ft 411 kts 234°
2026-04-26 18:37 29.42374 -92.58895 32873 ft 431 kts 217°
2026-04-26 18:38 29.39517 -92.60192 31970 ft 456 kts 200°
2026-04-26 18:38 29.36269 -92.60527 31047 ft 479 kts 182°
2026-04-26 18:38 29.32920 -92.59955 30192 ft 492 kts 173°
2026-04-26 18:38 29.29570 -92.59052 29382 ft 496 kts 171°
2026-04-26 18:39 29.26179 -92.58066 28559 ft 498 kts 170°
2026-04-26 18:39 29.22819 -92.57078 27756 ft 498 kts 170°
2026-04-26 18:39 29.19456 -92.56089 26920 ft 498 kts 170°
2026-04-26 18:39 29.16133 -92.55115 26053 ft 499 kts 170°
2026-04-26 18:40 29.12730 -92.54125 25201 ft 498 kts 170°
2026-04-26 18:40 29.09376 -92.53154 24562 ft 492 kts 170°
2026-04-26 18:40 29.06062 -92.52328 23973 ft 480 kts 179°
2026-04-26 18:40 29.02844 -92.52541 23300 ft 462 kts 199°
2026-04-26 18:41 28.99945 -92.54000 22673 ft 442 kts 220°
2026-04-26 18:41 28.97728 -92.56332 22021 ft 427 kts 234°
2026-04-26 18:41 28.95993 -92.59038 21334 ft 419 kts 243°
2026-04-26 18:41 28.94671 -92.61969 20618 ft 412 kts 252°
2026-04-26 18:42 28.93867 -92.65065 19974 ft 403 kts 262°
2026-04-26 18:42 28.93563 -92.68216 19319 ft 395 kts 272°
2026-04-26 18:42 28.93858 -92.71317 18628 ft 390 kts 284°
2026-04-26 18:42 28.94546 -92.74285 18002 ft 385 kts 287°
2026-04-26 18:43 28.95285 -92.77209 17382 ft 381 kts 287°
2026-04-26 18:43 28.96040 -92.80134 17146 ft 387 kts 287°
2026-04-26 18:43 28.96798 -92.83082 17057 ft 387 kts 287°
2026-04-26 18:43 28.97547 -92.86029 17031 ft 383 kts 287°
2026-04-26 18:44 28.98283 -92.88952 17032 ft 383 kts 287°
2026-04-26 18:44 28.99013 -92.91879 17025 ft 384 kts 287°
2026-04-26 18:44 28.99750 -92.94850 17023 ft 384 kts 287°
2026-04-26 18:44 29.00475 -92.97782 17023 ft 383 kts 287°
2026-04-26 18:45 29.01191 -93.00686 17028 ft 383 kts 287°
2026-04-26 18:45 29.01920 -93.03647 17027 ft 383 kts 287°
2026-04-26 18:45 29.02641 -93.06582 17028 ft 383 kts 287°
2026-04-26 18:45 29.03361 -93.09513 17029 ft 383 kts 287°
2026-04-26 18:46 29.04090 -93.12486 17030 ft 383 kts 287°
2026-04-26 18:46 29.04810 -93.15424 17023 ft 383 kts 287°
2026-04-26 18:46 29.05529 -93.18363 17027 ft 384 kts 287°
2026-04-26 18:46 29.06249 -93.21305 17030 ft 384 kts 287°
2026-04-26 18:47 29.06968 -93.24250 17030 ft 384 kts 287°
2026-04-26 18:47 29.07687 -93.27199 17026 ft 384 kts 287°
2026-04-26 18:47 29.08403 -93.30135 17027 ft 384 kts 287°
2026-04-26 18:47 29.09120 -93.33081 16919 ft 392 kts 287°
2026-04-26 18:48 29.09861 -93.36124 16665 ft 400 kts 286°
2026-04-26 18:48 29.10609 -93.39204 16409 ft 399 kts 286°
2026-04-26 18:48 29.11347 -93.42245 16156 ft 396 kts 286°
2026-04-26 18:48 29.12086 -93.45292 15911 ft 396 kts 286°
2026-04-26 18:49 29.12817 -93.48314 15657 ft 395 kts 286°
2026-04-26 18:49 29.13551 -93.51348 15403 ft 395 kts 286°
2026-04-26 18:49 29.14286 -93.54390 15157 ft 395 kts 286°
2026-04-26 18:49 29.14777 -93.56424 14991 ft 395 kts 286°
2026-04-26 18:50 29.15509 -93.59459 14740 ft 395 kts 286°
2026-04-26 18:50 29.16480 -93.63489 14404 ft 394 kts 286°
2026-04-26 18:50 29.17209 -93.66518 14157 ft 394 kts 286°
2026-04-26 18:50 29.17701 -93.68563 13986 ft 394 kts 286°
2026-04-26 18:51 29.18426 -93.71583 13742 ft 393 kts 286°
2026-04-26 18:51 29.19151 -93.74607 13486 ft 392 kts 286°
2026-04-26 18:51 29.19873 -93.77618 13243 ft 392 kts 285°
2026-04-26 18:51 29.20591 -93.80617 12985 ft 391 kts 285°
2026-04-26 18:52 29.21309 -93.83618 12734 ft 390 kts 285°
2026-04-26 18:52 29.22022 -93.86606 12485 ft 389 kts 285°
2026-04-26 18:52 29.22737 -93.89600 12230 ft 389 kts 285°
2026-04-26 18:52 29.23447 -93.92578 11976 ft 388 kts 285°
2026-04-26 18:53 29.24166 -93.95597 11722 ft 388 kts 285°
2026-04-26 18:53 29.24874 -93.98574 11485 ft 388 kts 285°
2026-04-26 18:53 29.25583 -94.01556 11230 ft 387 kts 285°
2026-04-26 18:53 29.26282 -94.04500 10978 ft 388 kts 284°
2026-04-26 18:54 29.26998 -94.07519 10729 ft 388 kts 284°
2026-04-26 18:54 29.27706 -94.10512 10478 ft 388 kts 284°
2026-04-26 18:54 29.28413 -94.13502 10229 ft 388 kts 284°
2026-04-26 18:54 29.29116 -94.16474 9970 ft 381 kts 284°
2026-04-26 18:55 29.29790 -94.19323 9697 ft 360 kts 284°
2026-04-26 18:55 29.30424 -94.22006 9428 ft 339 kts 283°
2026-04-26 18:55 29.31024 -94.24545 9162 ft 322 kts 283°
2026-04-26 18:55 29.31594 -94.26963 8895 ft 307 kts 283°
2026-04-26 18:56 29.32138 -94.29276 8633 ft 294 kts 283°
2026-04-26 18:56 29.32661 -94.31495 8397 ft 282 kts 283°
2026-04-26 18:56 29.33164 -94.33637 8340 ft 278 kts 283°
2026-04-26 18:56 29.33666 -94.35783 8342 ft 277 kts 283°
2026-04-26 18:57 29.34166 -94.37921 8316 ft 277 kts 283°
2026-04-26 18:57 29.34498 -94.39340 8312 ft 277 kts 283°
2026-04-26 18:57 29.35167 -94.42199 8296 ft 278 kts 283°
2026-04-26 18:57 29.35668 -94.44345 8295 ft 278 kts 283°
2026-04-26 18:58 29.36167 -94.46482 8296 ft 277 kts 283°
2026-04-26 18:58 29.36666 -94.48618 8295 ft 277 kts 283°
2026-04-26 18:58 29.37163 -94.50749 8298 ft 277 kts 282°
2026-04-26 18:58 29.37661 -94.52885 8300 ft 277 kts 283°
2026-04-26 18:59 29.38157 -94.55016 8303 ft 277 kts 283°
2026-04-26 18:59 29.38654 -94.57148 8302 ft 277 kts 283°
2026-04-26 18:59 29.39155 -94.59298 8305 ft 277 kts 283°
2026-04-26 18:59 29.39650 -94.61427 8305 ft 278 kts 282°
2026-04-26 19:00 29.40149 -94.63576 8305 ft 278 kts 282°
2026-04-26 19:00 29.40673 -94.65713 8302 ft 279 kts 288°
2026-04-26 19:00 29.41761 -94.67589 8333 ft 282 kts 311°
2026-04-26 19:00 29.43115 -94.69216 8308 ft 282 kts 311°
2026-04-26 19:01 29.44463 -94.70824 8096 ft 276 kts 311°
2026-04-26 19:01 29.45775 -94.72407 7771 ft 269 kts 311°
2026-04-26 19:01 29.47049 -94.73954 7461 ft 264 kts 311°
2026-04-26 19:01 29.48303 -94.75484 7151 ft 262 kts 311°
2026-04-26 19:02 29.49542 -94.77001 6871 ft 260 kts 311°
2026-04-26 19:02 29.50778 -94.78513 6576 ft 260 kts 311°
2026-04-26 19:02 29.52018 -94.80030 6341 ft 262 kts 311°
2026-04-26 19:02 29.52864 -94.81066 6319 ft 264 kts 311°
2026-04-26 19:03 29.54538 -94.83115 6271 ft 261 kts 311°
2026-04-26 19:03 29.55766 -94.84621 6245 ft 263 kts 311°
2026-04-26 19:03 29.57053 -94.86196 6062 ft 262 kts 311°
2026-04-26 19:03 29.58285 -94.87707 5908 ft 260 kts 311°
2026-04-26 19:04 29.59520 -94.89223 5744 ft 260 kts 311°
2026-04-26 19:04 29.60766 -94.90749 5586 ft 260 kts 311°
2026-04-26 19:04 29.62001 -94.92265 5386 ft 260 kts 311°
2026-04-26 19:04 29.63238 -94.93785 5126 ft 260 kts 311°
2026-04-26 19:05 29.65689 -94.96639 4771 ft 234 kts 313°
2026-04-26 19:05 29.66807 -94.97902 4566 ft 225 kts 313°
2026-04-26 19:05 29.67937 -94.99177 4157 ft 228 kts 313°
2026-04-26 19:06 29.69076 -95.00490 4076 ft 232 kts 313°
2026-04-26 19:06 29.70215 -95.01816 4028 ft 232 kts 313°
2026-04-26 19:06 29.71343 -95.03130 3999 ft 227 kts 313°
2026-04-26 19:06 29.72359 -95.04441 3988 ft 213 kts 296°
2026-04-26 19:07 29.72670 -95.05475 4003 ft 202 kts 271°
2026-04-26 19:07 29.72105 -95.07411 3932 ft 184 kts 220°
2026-04-26 19:07 29.71010 -95.08030 3581 ft 178 kts 188°
2026-04-26 19:07 29.69785 -95.08340 3206 ft 182 kts 205°
2026-04-26 19:08 29.68929 -95.09423 2838 ft 192 kts 244°
2026-04-26 19:08 29.68861 -95.10964 2430 ft 198 kts 284°
2026-04-26 19:08 29.69608 -95.12316 2146 ft 204 kts 310°
2026-04-26 19:08 29.70568 -95.13538 2049 ft 206 kts 311°
2026-04-26 19:09 29.71203 -95.14341 1950 ft 203 kts 311°
2026-04-26 19:09 29.72150 -95.15537 1649 ft 197 kts 311°
2026-04-26 19:09 29.73026 -95.16742 1611 ft 198 kts 298°
2026-04-26 19:09 29.73276 -95.18260 1614 ft 195 kts 254°
2026-04-26 19:10 29.72528 -95.19501 1629 ft 188 kts 210°
2026-04-26 19:10 29.71451 -95.20409 1649 ft 195 kts 217°
2026-04-26 19:10 29.70426 -95.21410 1645 ft 192 kts 217°
2026-04-26 19:10 29.69378 -95.22495 1647 ft 191 kts 220°